contact:dominique.lefevre@mio.osupytheas.fr, maurice.libes@osupytheas.fr, didier.mallarino@osupytheas.fr
Project:EMSO http://www.emso-fr.org/EMSO-France
Depth: 2436.0 m
Title:EMSO Ligure Ouest : Data MII capteur AQUADOPP
Date,Latitude,Longitude,X_East,Y_North,Z_Up,Amplitude_X,Amplitude_Y,Amplitude_Z,Batterie,SoundSpeed,Heading,Pitch,Roll,Pressure,TIS,Speed,Direction
, degrees North, degrees East, m.s-1, m.s-1,m.s-1, 1, 1, 1, Volt, m.s-1, degree, degree, degree, dbar, degree_C, m.s-1, degree
2022-03-04T00:04:03,42.805,6.029,0.019,-0.021,-0.014,102.0,101.0,101.0,13.3,1505.2,324.2,-0.8,1.8,2472.692,13.28,0.028,137.9
2022-03-04T00:07:03,42.805,6.029,0.016,-0.007,0.018,101.0,102.0,101.0,13.4,1505.2,329.5,-0.8,1.8,2472.753,13.28,0.017,113.6
2022-03-04T00:10:03,42.805,6.029,0.024,-0.012,-0.031,101.0,103.0,101.0,13.3,1505.2,331.4,-0.7,1.8,2472.772,13.28,0.026,116.6
2022-03-04T00:13:03,42.805,6.029,0.01,0.003,-0.021,102.0,102.0,101.0,13.3,1505.2,326.7,-0.7,1.8,2472.913,13.28,0.01,73.3
2022-03-04T00:16:03,42.805,6.029,0.011,-0.01,-0.014,102.0,102.0,101.0,13.3,1505.2,329.0,-0.8,1.8,2472.991,13.28,0.014,132.3
2022-03-04T00:19:03,42.805,6.029,-0.01,-0.011,-0.043,102.0,103.0,101.0,13.4,1505.2,331.4,-0.7,1.8,2473.04,13.28,0.014,222.3
2022-03-04T00:22:03,42.805,6.029,0.02,-0.016,0.005,102.0,102.0,101.0,13.4,1505.2,331.3,-0.7,1.8,2473.187,13.28,0.025,128.7
2022-03-04T00:25:03,42.805,6.029,-0.001,-0.006,-0.037,103.0,101.0,100.0,13.4,1505.2,328.1,-0.7,1.8,2473.283,13.28,0.006,189.5
2022-03-04T00:28:03,42.805,6.029,0.024,-0.011,-0.017,102.0,102.0,100.0,13.4,1505.2,327.2,-0.8,1.8,2473.343,13.28,0.026,114.6
2022-03-04T00:31:03,42.805,6.029,0.011,-0.024,-0.032,102.0,102.0,101.0,13.3,1505.2,329.9,-0.7,1.8,2473.233,13.28,0.026,155.4
2022-03-04T00:34:03,42.805,6.029,0.032,-0.005,0.012,101.0,106.0,101.0,13.4,1505.2,327.7,-0.8,1.8,2473.321,13.28,0.032,98.9
2022-03-04T00:37:03,42.805,6.029,0.007,-0.017,-0.015,102.0,101.0,102.0,13.4,1505.2,326.3,-0.8,1.8,2473.328,13.28,0.018,157.6
2022-03-04T00:40:03,42.805,6.029,0.02,-0.012,-0.009,103.0,102.0,101.0,13.4,1505.2,325.6,-0.8,1.8,2473.215,13.28,0.023,121.0
2022-03-04T00:43:03,42.805,6.029,0.028,-0.026,0.004,101.0,103.0,100.0,13.4,1505.2,328.3,-0.8,1.8,2473.185,13.28,0.038,132.9
2022-03-04T00:46:03,42.805,6.029,0.025,-0.036,-0.014,102.0,102.0,101.0,13.4,1505.2,324.7,-0.8,1.8,2473.16,13.28,0.043,145.2
2022-03-04T00:49:03,42.805,6.029,0.029,-0.003,0.004,101.0,102.0,101.0,13.4,1505.2,326.2,-0.8,1.8,2473.117,13.28,0.029,95.9
2022-03-04T00:52:03,42.805,6.029,0.012,-0.006,-0.009,102.0,103.0,101.0,13.3,1505.2,328.2,-0.8,1.8,2473.112,13.28,0.013,116.6
2022-03-04T00:55:03,42.805,6.029,0.031,-0.022,-0.018,103.0,101.0,103.0,13.4,1505.2,324.9,-0.8,1.8,2473.21,13.28,0.038,125.4
2022-03-04T00:58:03,42.805,6.029,0.016,0.003,0.0,103.0,101.0,101.0,13.4,1505.2,328.4,-0.7,1.8,2473.153,13.28,0.016,79.4
2022-03-04T01:04:03,42.805,6.029,0.026,-0.016,0.017,104.0,103.0,103.0,13.3,1505.2,327.8,-0.8,1.8,2473.167,13.28,0.03,121.6
2022-03-04T01:07:03,42.805,6.029,0.01,-0.013,0.005,103.0,102.0,102.0,13.4,1505.2,325.2,-0.8,1.9,2473.209,13.28,0.016,142.4
2022-03-04T01:10:03,42.805,6.029,0.006,-0.012,-0.003,103.0,103.0,102.0,13.4,1505.2,331.4,-0.8,1.9,2473.256,13.28,0.013,153.4
2022-03-04T01:13:03,42.805,6.029,0.009,-0.02,-0.018,102.0,102.0,101.0,13.4,1505.2,329.2,-0.7,1.8,2473.353,13.28,0.021,155.8
2022-03-04T01:16:03,42.805,6.029,0.042,-0.008,-0.011,101.0,103.0,101.0,13.4,1505.2,331.1,-0.8,1.8,2473.437,13.28,0.042,100.8
2022-03-04T01:19:03,42.805,6.029,0.037,-0.016,0.0,103.0,102.0,101.0,13.4,1505.2,331.9,-0.8,1.9,2473.399,13.28,0.04,113.4
2022-03-04T01:22:03,42.805,6.029,0.018,-0.006,0.0,104.0,102.0,101.0,13.4,1505.2,325.1,-0.7,1.8,2473.37,13.28,0.018,108.4
2022-03-04T01:25:03,42.805,6.029,0.024,-0.002,-0.006,102.0,102.0,100.0,13.4,1505.2,330.8,-0.7,1.8,2473.435,13.28,0.024,94.8
2022-03-04T01:28:03,42.805,6.029,0.013,-0.024,-0.013,102.0,101.0,102.0,13.4,1505.2,329.0,-0.7,1.8,2473.353,13.28,0.027,151.6
2022-03-04T01:31:03,42.805,6.029,0.022,-0.014,-0.018,102.0,102.0,102.0,13.3,1505.2,328.9,-0.7,1.8,2473.379,13.28,0.026,122.5
2022-03-04T01:34:03,42.805,6.029,0.002,0.005,-0.026,101.0,104.0,101.0,13.4,1505.2,327.7,-0.8,1.8,2473.377,13.28,0.005,21.8
2022-03-04T01:37:03,42.805,6.029,0.016,0.005,0.027,102.0,101.0,101.0,13.4,1505.2,327.1,-0.7,1.8,2473.153,13.28,0.016,72.6
2022-03-04T01:40:03,42.805,6.029,0.023,-0.02,-0.009,103.0,101.0,102.0,13.4,1505.2,327.7,-0.8,1.9,2473.012,13.28,0.03,131.0
2022-03-04T01:43:03,42.805,6.029,0.044,-0.029,-0.002,102.0,102.0,101.0,13.3,1505.2,327.5,-0.7,1.8,2473.148,13.28,0.052,123.4
2022-03-04T01:46:03,42.805,6.029,0.026,-0.015,-0.012,102.0,104.0,102.0,13.4,1505.2,329.7,-0.8,1.8,2473.206,13.28,0.03,120.0
2022-03-04T01:49:03,42.805,6.029,0.041,-0.013,-0.004,102.0,102.0,101.0,13.3,1505.2,324.7,-0.7,1.8,2473.259,13.28,0.043,107.6
2022-03-04T01:52:03,42.805,6.029,0.026,-0.003,0.003,102.0,104.0,102.0,13.4,1505.2,323.6,-0.7,1.8,2473.359,13.28,0.026,96.6
2022-03-04T01:55:03,42.805,6.029,0.031,-0.011,-0.009,103.0,103.0,101.0,13.3,1505.2,328.9,-0.8,1.8,2473.42,13.28,0.032,109.5
2022-03-04T01:58:03,42.805,6.029,0.033,-0.027,-0.009,102.0,102.0,101.0,13.4,1505.2,327.7,-0.8,1.8,2473.413,13.28,0.042,129.3
2022-03-04T02:04:03,42.805,6.029,0.03,-0.014,0.013,103.0,103.0,101.0,13.4,1505.2,330.3,-0.8,1.8,2473.452,13.28,0.033,115.0
2022-03-04T02:07:03,42.805,6.029,0.037,-0.003,0.008,102.0,103.0,101.0,13.3,1505.2,326.3,-0.7,1.8,2473.529,13.28,0.037,94.6
2022-03-04T02:10:03,42.805,6.029,0.043,-0.025,0.013,103.0,103.0,100.0,13.4,1505.2,324.0,-0.8,1.8,2473.56,13.28,0.049,120.2
2022-03-04T02:13:03,42.805,6.029,0.038,-0.041,-0.014,103.0,100.0,101.0,13.4,1505.2,325.9,-0.7,1.8,2473.505,13.28,0.055,137.2
2022-03-04T02:16:03,42.805,6.029,0.009,-0.017,0.001,104.0,101.0,101.0,13.4,1505.2,326.1,-0.7,1.8,2473.553,13.28,0.019,152.1
2022-03-04T02:19:03,42.805,6.029,0.021,-0.009,-0.008,102.0,102.0,101.0,13.3,1505.2,327.6,-0.7,1.8,2473.515,13.28,0.022,113.2
2022-03-04T02:22:03,42.805,6.029,0.024,0.016,0.006,102.0,104.0,102.0,13.4,1505.2,327.5,-0.7,1.8,2473.611,13.28,0.028,56.3
2022-03-04T02:25:03,42.805,6.029,0.031,-0.023,-0.008,103.0,102.0,101.0,13.4,1505.2,332.0,-0.7,1.8,2473.614,13.28,0.038,126.6
2022-03-04T02:28:03,42.805,6.029,0.033,-0.002,-0.006,103.0,104.0,101.0,13.4,1505.2,329.5,-0.8,1.8,2473.644,13.28,0.033,93.5
2022-03-04T02:31:03,42.805,6.029,0.035,-0.028,-0.018,103.0,101.0,101.0,13.4,1505.2,328.3,-0.8,1.8,2473.678,13.28,0.044,128.7
2022-03-04T02:34:03,42.805,6.029,0.016,-0.028,-0.018,102.0,103.0,101.0,13.4,1505.2,328.4,-0.7,1.8,2473.632,13.28,0.032,150.3
2022-03-04T02:37:03,42.805,6.029,0.048,-0.008,-0.003,102.0,103.0,101.0,13.4,1505.2,325.7,-0.8,1.8,2473.634,13.28,0.048,99.5
2022-03-04T02:40:03,42.805,6.029,0.028,0.001,0.029,103.0,103.0,100.0,13.3,1505.2,324.8,-0.8,1.8,2473.587,13.28,0.028,88.0
2022-03-04T02:43:03,42.805,6.029,0.036,-0.015,-0.031,101.0,103.0,101.0,13.3,1505.2,329.0,-0.7,1.9,2473.649,13.28,0.039,112.6
2022-03-04T02:46:03,42.805,6.029,0.011,-0.015,-0.012,101.0,104.0,102.0,13.3,1505.2,332.2,-0.8,1.8,2473.668,13.28,0.018,143.7
2022-03-04T02:49:03,42.805,6.029,0.001,-0.006,0.001,103.0,104.0,100.0,13.3,1505.2,324.8,-0.7,1.8,2473.742,13.28,0.006,170.5
2022-03-04T02:52:03,42.805,6.029,0.037,-0.003,0.0,102.0,103.0,101.0,13.4,1505.2,327.3,-0.8,1.8,2473.739,13.28,0.037,94.6
2022-03-04T02:55:03,42.805,6.029,0.042,-0.027,-0.012,103.0,101.0,102.0,13.4,1505.2,327.3,-0.7,1.8,2473.776,13.28,0.049,122.7
2022-03-04T02:58:03,42.805,6.029,0.021,-0.009,-0.014,103.0,102.0,101.0,13.4,1505.2,326.3,-0.7,1.8,2473.78,13.28,0.022,113.2
2022-03-04T03:04:03,42.805,6.029,0.02,-0.03,-0.025,103.0,103.0,101.0,13.4,1505.2,328.7,-0.8,1.8,2473.767,13.28,0.036,146.3
2022-03-04T03:07:03,42.805,6.029,0.036,-0.019,0.025,103.0,103.0,102.0,13.4,1505.2,329.0,-0.7,1.8,2473.772,13.28,0.04,117.8
2022-03-04T03:10:03,42.805,6.029,0.057,-0.024,0.022,104.0,101.0,101.0,13.4,1505.2,327.0,-0.8,1.8,2473.715,13.28,0.061,112.8
2022-03-04T03:13:03,42.805,6.029,0.041,0.001,-0.014,102.0,104.0,101.0,13.4,1505.2,329.9,-0.7,1.8,2473.76,13.28,0.041,88.6
2022-03-04T03:16:03,42.805,6.029,0.044,-0.03,0.015,102.0,102.0,101.0,13.4,1505.2,326.0,-0.8,1.8,2473.795,13.28,0.053,124.3
2022-03-04T03:19:03,42.805,6.029,0.039,-0.007,0.031,103.0,102.0,102.0,13.4,1505.2,328.2,-0.7,1.8,2473.782,13.28,0.039,100.2
2022-03-04T03:22:03,42.805,6.029,0.034,-0.004,-0.018,103.0,103.0,102.0,13.3,1505.2,331.3,-0.8,1.8,2473.88,13.28,0.034,96.7
2022-03-04T03:25:03,42.805,6.029,0.038,-0.018,-0.004,103.0,103.0,101.0,13.4,1505.2,331.3,-0.7,1.8,2473.921,13.28,0.042,115.3
2022-03-04T03:28:03,42.805,6.029,0.023,-0.002,-0.052,102.0,102.0,102.0,13.4,1505.2,330.8,-0.8,1.8,2473.917,13.28,0.023,95.0
2022-03-04T03:31:03,42.805,6.029,0.037,-0.019,0.0,102.0,103.0,101.0,13.4,1505.2,331.7,-0.8,1.8,2473.929,13.28,0.041,117.2
2022-03-04T03:34:03,42.805,6.029,0.024,-0.005,0.001,103.0,103.0,102.0,13.4,1505.2,325.7,-0.8,1.8,2473.951,13.28,0.024,101.8
2022-03-04T03:37:03,42.805,6.029,0.012,-0.027,0.018,104.0,103.0,101.0,13.4,1505.2,324.9,-0.8,1.8,2473.835,13.28,0.029,156.0
2022-03-04T03:40:03,42.805,6.029,0.024,-0.027,-0.036,103.0,103.0,101.0,13.4,1505.2,328.4,-0.7,1.8,2473.846,13.28,0.036,138.4
2022-03-04T03:43:03,42.805,6.029,0.023,0.02,-0.003,103.0,102.0,102.0,13.4,1505.2,329.7,-0.8,1.8,2473.838,13.28,0.03,49.0
2022-03-04T03:46:03,42.805,6.029,0.032,-0.004,-0.012,104.0,102.0,102.0,13.4,1505.2,327.9,-0.8,1.8,2473.829,13.28,0.032,97.1
2022-03-04T03:49:03,42.805,6.029,0.026,-0.01,-0.004,103.0,102.0,101.0,13.3,1505.2,332.5,-0.8,1.8,2473.82,13.28,0.027,111.0
2022-03-04T03:52:03,42.805,6.029,0.047,-0.008,0.005,102.0,103.0,101.0,13.4,1505.2,328.1,-0.7,1.8,2473.885,13.28,0.047,99.7
2022-03-04T03:55:03,42.805,6.029,0.021,-0.037,-0.011,103.0,102.0,101.0,13.4,1505.2,330.2,-0.8,1.8,2473.814,13.28,0.042,150.4
2022-03-04T03:58:03,42.805,6.029,0.035,-0.024,-0.005,103.0,104.0,100.0,13.4,1505.2,332.6,-0.7,1.8,2473.821,13.28,0.042,124.4
2022-03-04T04:04:03,42.805,6.029,0.044,-0.012,0.007,103.0,103.0,101.0,13.4,1505.2,329.0,-0.7,1.8,2473.843,13.28,0.045,105.3
2022-03-04T04:07:03,42.805,6.029,0.022,-0.006,-0.026,104.0,103.0,100.0,13.4,1505.2,328.9,-0.8,1.8,2473.837,13.28,0.022,105.3
2022-03-04T04:10:03,42.805,6.029,0.039,-0.003,-0.03,102.0,103.0,101.0,13.4,1505.2,327.8,-0.7,1.8,2473.855,13.28,0.039,94.4
2022-03-04T04:13:03,42.805,6.029,0.032,-0.011,0.024,104.0,102.0,101.0,13.3,1505.2,325.9,-0.7,1.8,2473.805,13.28,0.033,109.0
2022-03-04T04:16:03,42.805,6.029,0.022,-0.015,-0.008,103.0,102.0,103.0,13.3,1505.2,332.0,-0.7,1.8,2473.759,13.28,0.026,124.3
2022-03-04T04:19:03,42.805,6.029,0.025,-0.035,-0.004,103.0,103.0,101.0,13.4,1505.2,328.0,-0.8,1.8,2473.759,13.28,0.043,144.5
2022-03-04T04:22:03,42.805,6.029,0.032,-0.011,-0.01,103.0,103.0,101.0,13.4,1505.2,331.4,-0.8,1.8,2473.728,13.28,0.033,109.0
2022-03-04T04:25:03,42.805,6.029,0.028,-0.012,0.012,102.0,105.0,101.0,13.4,1505.2,329.1,-0.8,1.8,2473.67,13.28,0.03,113.2
2022-03-04T04:28:03,42.805,6.029,0.017,-0.017,-0.027,102.0,103.0,102.0,13.4,1505.2,326.0,-0.7,1.8,2473.61,13.28,0.024,135.0
2022-03-04T04:31:03,42.805,6.029,0.038,-0.006,-0.001,102.0,104.0,102.0,13.4,1505.2,329.2,-0.8,1.8,2473.491,13.28,0.038,99.0
2022-03-04T04:34:03,42.805,6.029,0.026,-0.007,0.01,103.0,103.0,101.0,13.3,1505.2,324.9,-0.8,1.8,2473.538,13.28,0.026,105.1
2022-03-04T04:37:03,42.805,6.029,0.024,-0.008,0.002,104.0,102.0,101.0,13.4,1505.2,326.2,-0.7,1.8,2473.503,13.28,0.025,108.4
2022-03-04T04:40:03,42.805,6.029,0.012,-0.013,-0.01,103.0,103.0,102.0,13.3,1505.2,332.2,-0.7,1.8,2473.475,13.28,0.017,137.3
2022-03-04T04:43:03,42.805,6.029,0.028,-0.011,0.0,103.0,105.0,100.0,13.4,1505.2,326.8,-0.8,1.8,2473.495,13.28,0.03,111.4
2022-03-04T04:46:03,42.805,6.029,0.009,-0.007,0.0,103.0,103.0,102.0,13.4,1505.2,326.2,-0.8,1.8,2473.442,13.28,0.011,127.9
2022-03-04T04:49:03,42.805,6.029,0.034,-0.013,0.0,102.0,103.0,102.0,13.4,1505.2,323.5,-0.7,1.8,2473.51,13.28,0.036,110.9
2022-03-04T04:52:03,42.805,6.029,0.017,-0.005,-0.003,103.0,103.0,102.0,13.3,1505.2,325.9,-0.8,1.8,2473.549,13.28,0.017,106.4
2022-03-04T04:55:03,42.805,6.029,0.026,-0.019,-0.021,103.0,104.0,101.0,13.3,1505.2,331.3,-0.7,1.8,2473.531,13.28,0.032,126.2
2022-03-04T04:58:03,42.805,6.029,0.021,-0.002,-0.003,103.0,102.0,102.0,13.4,1505.2,328.4,-0.8,1.8,2473.533,13.28,0.021,95.4
2022-03-04T05:04:03,42.805,6.029,0.02,-0.005,0.028,102.0,102.0,101.0,13.3,1505.2,324.6,-0.7,1.8,2473.523,13.28,0.02,104.0
2022-03-04T05:07:03,42.805,6.029,0.022,-0.014,-0.012,103.0,102.0,101.0,13.3,1505.2,325.8,-0.7,1.8,2473.497,13.28,0.026,122.5
2022-03-04T05:10:03,42.805,6.029,0.025,0.003,0.008,104.0,104.0,101.0,13.4,1505.2,324.3,-0.8,1.8,2473.512,13.28,0.025,83.2
2022-03-04T05:13:03,42.805,6.029,0.021,-0.016,0.016,103.0,103.0,101.0,13.4,1505.2,325.9,-0.7,1.8,2473.475,13.28,0.026,127.3
2022-03-04T05:16:03,42.805,6.029,0.015,-0.014,-0.016,101.0,103.0,102.0,13.4,1505.2,326.4,-0.7,1.8,2473.455,13.28,0.02,133.0
2022-03-04T05:19:03,42.805,6.029,0.037,-0.03,-0.038,102.0,103.0,101.0,13.4,1505.2,328.5,-0.8,1.8,2473.443,13.28,0.047,129.0
2022-03-04T05:22:03,42.805,6.029,0.041,-0.008,0.002,103.0,103.0,102.0,13.4,1505.2,326.7,-0.8,1.8,2473.416,13.28,0.041,101.0
2022-03-04T05:25:03,42.805,6.029,0.036,-0.01,0.007,102.0,103.0,101.0,13.4,1505.2,325.4,-0.8,1.8,2473.437,13.28,0.037,105.5
2022-03-04T05:28:03,42.805,6.029,0.035,-0.009,0.046,102.0,102.0,101.0,13.3,1505.2,329.6,-0.7,1.8,2473.45,13.28,0.036,104.4
2022-03-04T05:31:03,42.805,6.029,0.039,0.0,0.011,102.0,104.0,102.0,13.4,1505.2,326.9,-0.7,1.8,2473.392,13.28,0.039,90.0
2022-03-04T05:34:03,42.805,6.029,0.002,-0.019,-0.002,103.0,102.0,102.0,13.4,1505.2,330.5,-0.8,1.9,2473.319,13.28,0.019,174.0
2022-03-04T05:37:03,42.805,6.029,0.024,-0.017,-0.018,104.0,103.0,102.0,13.4,1505.2,330.9,-0.8,1.8,2473.37,13.28,0.029,125.3
2022-03-04T05:40:03,42.805,6.029,0.036,-0.017,-0.033,103.0,103.0,101.0,13.3,1505.2,328.4,-0.7,1.8,2473.323,13.28,0.039,115.3
2022-03-04T05:43:03,42.805,6.029,0.037,0.012,-0.006,102.0,104.0,100.0,13.4,1505.2,325.4,-0.7,1.8,2473.301,13.28,0.038,72.0
2022-03-04T05:46:03,42.805,6.029,0.015,-0.012,-0.023,100.0,103.0,101.0,13.3,1505.2,329.3,-0.8,1.8,2473.248,13.28,0.019,128.7
2022-03-04T05:49:03,42.805,6.029,0.044,-0.008,-0.006,103.0,103.0,101.0,13.4,1505.2,328.7,-0.7,1.8,2473.314,13.28,0.044,100.3
2022-03-04T05:52:03,42.805,6.029,0.023,-0.002,-0.016,102.0,102.0,101.0,13.4,1505.2,329.4,-0.7,1.8,2473.301,13.28,0.023,95.0
2022-03-04T05:55:03,42.805,6.029,0.031,0.007,0.011,102.0,102.0,100.0,13.4,1505.2,324.1,-0.8,1.8,2473.262,13.28,0.031,77.3
2022-03-04T05:58:03,42.805,6.029,0.013,-0.012,-0.014,102.0,103.0,101.0,13.4,1505.2,326.4,-0.7,1.8,2473.24,13.28,0.017,132.7
2022-03-04T06:04:03,42.805,6.029,0.046,-0.025,0.003,102.0,102.0,102.0,13.4,1505.2,323.5,-0.8,1.8,2473.248,13.28,0.052,118.5
2022-03-04T06:07:03,42.805,6.029,0.045,-0.01,0.01,102.0,103.0,101.0,13.4,1505.2,331.2,-0.7,1.8,2473.231,13.28,0.046,102.5
2022-03-04T06:10:03,42.805,6.029,0.029,0.006,-0.021,102.0,103.0,101.0,13.3,1505.2,323.5,-0.8,1.8,2473.217,13.28,0.029,78.3
2022-03-04T06:13:03,42.805,6.029,0.049,-0.021,-0.001,102.0,104.0,102.0,13.3,1505.2,327.4,-0.7,1.8,2473.258,13.28,0.053,113.2
2022-03-04T06:16:03,42.805,6.029,0.02,-0.006,0.008,101.0,102.0,102.0,13.4,1505.2,324.1,-0.8,1.8,2473.245,13.28,0.02,106.7
2022-03-04T06:19:03,42.805,6.029,0.031,-0.012,0.003,102.0,102.0,101.0,13.4,1505.2,329.1,-0.8,1.8,2473.198,13.28,0.033,111.2
2022-03-04T06:22:03,42.805,6.029,0.009,0.007,0.026,101.0,102.0,102.0,13.3,1505.2,325.0,-0.8,1.8,2473.167,13.28,0.011,52.1
2022-03-04T06:25:03,42.805,6.029,-0.002,-0.002,-0.02,103.0,102.0,101.0,13.4,1505.2,328.5,-0.8,1.9,2473.157,13.28,0.002,225.0
2022-03-04T06:28:03,42.805,6.029,0.012,-0.005,0.01,102.0,102.0,101.0,13.3,1505.2,328.2,-0.8,1.8,2473.15,13.28,0.013,112.6
2022-03-04T06:31:03,42.805,6.029,0.029,-0.025,0.008,102.0,103.0,101.0,13.4,1505.2,327.2,-0.8,1.8,2473.133,13.28,0.038,130.8
2022-03-04T06:34:03,42.805,6.029,0.039,-0.039,-0.02,103.0,104.0,100.0,13.4,1505.2,326.8,-0.7,1.8,2473.099,13.28,0.055,135.0
2022-03-04T06:37:03,42.805,6.029,0.035,-0.012,0.004,102.0,102.0,103.0,13.4,1505.2,326.4,-0.7,1.9,2473.106,13.28,0.037,108.9
2022-03-04T06:40:03,42.805,6.029,0.037,-0.032,-0.028,102.0,104.0,101.0,13.3,1505.2,324.3,-0.8,1.8,2473.07,13.28,0.048,130.9
2022-03-04T06:43:03,42.805,6.029,0.027,-0.001,0.021,102.0,103.0,100.0,13.4,1505.2,325.0,-0.8,1.8,2473.064,13.28,0.027,92.1
2022-03-04T06:46:03,42.805,6.029,0.006,0.001,0.0,103.0,102.0,101.0,13.4,1505.2,325.0,-0.7,1.8,2472.966,13.28,0.006,80.5
2022-03-04T06:49:03,42.805,6.029,0.03,-0.008,0.009,103.0,103.0,101.0,13.4,1505.2,325.2,-0.7,1.8,2473.08,13.28,0.031,104.9
2022-03-04T06:52:03,42.805,6.029,0.025,-0.017,-0.023,104.0,103.0,101.0,13.4,1505.2,328.6,-0.8,1.8,2473.159,13.28,0.03,124.2
2022-03-04T06:55:03,42.805,6.029,0.041,-0.015,-0.023,102.0,103.0,101.0,13.3,1505.2,325.4,-0.8,1.8,2473.213,13.28,0.043,110.1
2022-03-04T06:58:03,42.805,6.029,0.046,-0.012,-0.008,102.0,102.0,101.0,13.4,1505.2,327.3,-0.7,1.8,2473.213,13.28,0.047,104.6
2022-03-04T07:04:03,42.805,6.029,0.032,-0.013,0.009,102.0,103.0,101.0,13.3,1505.2,326.5,-0.8,1.8,2473.236,13.28,0.034,112.1
2022-03-04T07:07:03,42.805,6.029,0.028,-0.019,0.008,103.0,102.0,102.0,13.4,1505.2,329.9,-0.8,1.9,2473.156,13.28,0.033,124.2
2022-03-04T07:10:03,42.805,6.029,0.035,-0.016,-0.025,103.0,103.0,101.0,13.4,1505.2,326.8,-0.7,1.8,2472.913,13.28,0.038,114.6
2022-03-04T07:13:03,42.805,6.029,0.046,-0.002,-0.003,103.0,102.0,102.0,13.4,1505.2,328.4,-0.8,1.8,2472.494,13.28,0.046,92.5
2022-03-04T07:16:03,42.805,6.029,0.022,-0.01,-0.008,102.0,102.0,101.0,13.3,1505.2,328.1,-0.7,1.8,2472.339,13.28,0.024,114.4
2022-03-04T07:19:03,42.805,6.029,0.047,0.005,0.051,104.0,103.0,101.0,13.3,1505.2,329.5,-0.8,1.8,2472.185,13.28,0.047,83.9
2022-03-04T07:22:03,42.805,6.029,0.032,-0.018,-0.006,104.0,102.0,101.0,13.4,1505.2,329.8,-0.7,1.8,2472.105,13.28,0.036,119.4
2022-03-04T07:25:03,42.805,6.029,0.014,-0.016,-0.021,103.0,104.0,101.0,13.3,1505.2,328.6,-0.8,1.8,2472.113,13.28,0.021,138.8
2022-03-04T07:28:03,42.805,6.029,0.022,0.004,-0.009,103.0,104.0,100.0,13.4,1505.2,327.1,-0.8,1.8,2472.084,13.28,0.022,79.7
2022-03-04T07:31:03,42.805,6.029,0.034,-0.009,-0.009,102.0,103.0,101.0,13.4,1505.2,325.9,-0.7,1.8,2472.181,13.28,0.035,104.8
2022-03-04T07:34:03,42.805,6.029,0.028,-0.017,-0.024,102.0,104.0,101.0,13.4,1505.2,324.2,-0.8,1.8,2472.278,13.28,0.032,121.3
2022-03-04T07:37:03,42.805,6.029,0.039,-0.024,-0.009,104.0,101.0,102.0,13.4,1505.2,329.6,-0.7,1.8,2472.393,13.28,0.045,121.6
2022-03-04T07:40:03,42.805,6.029,0.034,-0.013,0.0,103.0,103.0,101.0,13.4,1505.2,331.1,-0.8,1.8,2472.442,13.28,0.036,110.9
2022-03-04T07:43:03,42.805,6.029,0.021,-0.018,-0.004,102.0,102.0,101.0,13.4,1505.2,325.9,-0.7,1.8,2472.606,13.28,0.027,130.6
2022-03-04T07:46:03,42.805,6.029,0.035,-0.014,0.014,101.0,103.0,101.0,13.3,1505.2,324.4,-0.7,1.8,2472.727,13.28,0.037,111.8
2022-03-04T07:49:03,42.805,6.029,0.01,-0.005,0.023,103.0,102.0,101.0,13.4,1505.2,328.2,-0.8,1.8,2472.739,13.28,0.011,116.6
2022-03-04T07:52:03,42.805,6.029,0.022,-0.021,-0.024,103.0,103.0,102.0,13.4,1505.2,325.7,-0.8,1.8,2472.79,13.28,0.03,133.7
2022-03-04T07:55:03,42.805,6.029,0.009,-0.002,-0.002,104.0,103.0,101.0,13.4,1505.2,325.2,-0.8,1.8,2472.821,13.28,0.009,102.5
2022-03-04T07:58:03,42.805,6.029,0.035,-0.017,-0.012,103.0,102.0,101.0,13.4,1505.2,326.8,-0.7,1.8,2472.834,13.28,0.038,115.9
2022-03-04T08:04:03,42.805,6.029,0.021,-0.025,0.011,102.0,101.0,101.0,13.4,1505.2,324.9,-0.8,1.8,2472.013,13.28,0.032,140.0
2022-03-04T08:07:03,42.805,6.029,0.013,-0.023,-0.002,102.0,103.0,101.0,13.3,1505.2,325.9,-0.8,1.8,2471.029,13.28,0.026,150.5
2022-03-04T08:10:03,42.805,6.029,0.024,-0.013,0.007,102.0,102.0,101.0,13.3,1505.2,327.9,-0.8,1.8,2470.458,13.28,0.027,118.4
2022-03-04T08:13:03,42.805,6.029,0.043,-0.008,0.002,101.0,103.0,101.0,13.4,1505.2,329.8,-0.7,1.8,2470.578,13.28,0.043,100.5
2022-03-04T08:16:03,42.805,6.029,0.023,-0.01,0.012,103.0,102.0,101.0,13.4,1505.2,325.5,-0.8,1.8,2470.65,13.28,0.025,113.5
2022-03-04T08:19:03,42.805,6.029,0.006,-0.004,0.011,102.0,101.0,102.0,13.4,1505.2,325.4,-0.7,1.8,2470.737,13.28,0.007,123.7
2022-03-04T08:22:03,42.805,6.029,0.014,-0.009,0.002,102.0,103.0,100.0,13.3,1505.2,325.4,-0.7,1.8,2470.851,13.28,0.016,122.7
2022-03-04T08:25:03,42.805,6.029,0.026,-0.026,-0.026,103.0,102.0,101.0,13.4,1505.2,328.0,-0.8,1.8,2470.866,13.28,0.036,135.0
2022-03-04T08:28:03,42.805,6.029,0.009,-0.015,-0.014,102.0,102.0,101.0,13.4,1505.2,324.7,-0.8,1.8,2470.957,13.28,0.017,149.0
2022-03-04T08:31:03,42.805,6.029,0.035,-0.034,0.017,101.0,103.0,101.0,13.4,1505.2,329.0,-0.8,1.8,2470.987,13.28,0.048,134.2
2022-03-04T08:34:03,42.805,6.029,0.041,-0.034,-0.041,102.0,104.0,101.0,13.4,1505.2,323.5,-0.8,1.8,2471.045,13.28,0.053,129.7
2022-03-04T08:37:03,42.805,6.029,0.013,-0.023,-0.046,103.0,103.0,101.0,13.3,1505.2,332.3,-0.8,1.8,2471.078,13.28,0.026,150.5
2022-03-04T08:40:03,42.805,6.029,0.028,-0.019,-0.004,102.0,102.0,102.0,13.3,1505.2,325.6,-0.8,1.8,2471.077,13.28,0.033,124.2
2022-03-04T08:43:03,42.805,6.029,0.033,-0.02,0.01,102.0,102.0,101.0,13.3,1505.2,328.2,-0.7,1.8,2471.093,13.28,0.038,121.2
2022-03-04T08:46:03,42.805,6.029,0.003,-0.024,0.012,102.0,102.0,100.0,13.4,1505.2,326.7,-0.7,1.8,2471.09,13.28,0.024,172.9
2022-03-04T08:49:03,42.805,6.029,0.03,-0.009,-0.014,102.0,102.0,100.0,13.4,1505.2,324.1,-0.8,1.8,2471.094,13.28,0.031,106.7
2022-03-04T08:52:03,42.805,6.029,0.025,-0.005,0.0,102.0,102.0,101.0,13.4,1505.2,326.7,-0.8,1.8,2471.086,13.28,0.025,101.3
2022-03-04T08:55:03,42.805,6.029,0.01,-0.014,-0.013,102.0,102.0,101.0,13.3,1505.2,325.0,-0.7,1.8,2471.089,13.28,0.017,144.5
2022-03-04T08:58:03,42.805,6.029,0.013,0.007,0.02,101.0,103.0,101.0,13.4,1505.2,326.8,-0.8,1.8,2471.069,13.28,0.014,61.7
2022-03-04T09:04:03,42.805,6.029,-0.008,-0.03,-0.01,101.0,103.0,101.0,13.4,1505.2,327.8,-0.7,1.8,2471.103,13.28,0.031,194.9
2022-03-04T09:07:03,42.805,6.029,0.028,-0.019,-0.005,101.0,102.0,101.0,13.4,1505.2,326.8,-0.8,1.8,2471.096,13.28,0.033,124.2
2022-03-04T09:10:03,42.805,6.029,0.024,-0.033,-0.01,102.0,103.0,101.0,13.4,1505.2,325.4,-0.8,1.8,2471.073,13.28,0.04,144.0
2022-03-04T09:13:03,42.805,6.029,0.026,-0.007,-0.019,102.0,102.0,102.0,13.3,1505.2,329.3,-0.8,1.8,2471.081,13.28,0.026,105.1
2022-03-04T09:16:03,42.805,6.029,0.012,-0.012,0.009,102.0,102.0,100.0,13.4,1505.2,330.2,-0.7,1.8,2471.053,13.28,0.016,135.0
2022-03-04T09:19:03,42.805,6.029,0.027,-0.004,-0.009,102.0,103.0,101.0,13.4,1505.2,330.1,-0.7,1.8,2471.047,13.28,0.027,98.4
2022-03-04T09:22:03,42.805,6.029,0.025,-0.025,-0.034,101.0,102.0,101.0,13.4,1505.2,325.4,-0.7,1.8,2471.052,13.28,0.035,135.0
2022-03-04T09:25:03,42.805,6.029,-0.006,-0.008,-0.019,101.0,102.0,102.0,13.4,1505.2,324.1,-0.7,1.9,2471.032,13.28,0.01,216.9
2022-03-04T09:28:03,42.805,6.029,0.02,-0.009,0.013,101.0,101.0,101.0,13.4,1505.2,328.9,-0.7,1.8,2471.007,13.28,0.021,114.2
2022-03-04T09:31:03,42.805,6.029,0.01,-0.027,0.008,102.0,102.0,101.0,13.3,1505.2,325.3,-0.7,1.8,2470.993,13.28,0.028,159.7
2022-03-04T09:34:03,42.805,6.029,0.031,-0.02,-0.052,101.0,102.0,101.0,13.4,1505.2,323.7,-0.7,1.8,2470.972,13.28,0.036,122.8
2022-03-04T09:37:03,42.805,6.029,0.011,0.002,0.001,102.0,101.0,101.0,13.4,1505.2,323.5,-0.8,1.8,2471.011,13.28,0.011,79.7
2022-03-04T09:40:03,42.805,6.029,0.03,-0.016,0.0,101.0,102.0,100.0,13.4,1505.2,331.0,-0.8,1.8,2470.974,13.28,0.034,118.1
2022-03-04T09:43:03,42.805,6.029,0.003,-0.01,-0.024,102.0,101.0,101.0,13.4,1505.2,328.5,-0.7,1.8,2470.96,13.28,0.01,163.3
2022-03-04T09:46:03,42.805,6.029,0.006,-0.021,0.001,100.0,103.0,101.0,13.4,1505.2,330.8,-0.8,1.8,2470.97,13.28,0.021,164.1
2022-03-04T09:49:03,42.805,6.029,-0.001,-0.029,0.002,103.0,101.0,101.0,13.4,1505.2,331.1,-0.7,1.8,2470.931,13.28,0.029,182.0
2022-03-04T09:52:03,42.805,6.029,0.023,-0.02,-0.012,101.0,101.0,101.0,13.4,1505.2,324.8,-0.8,1.8,2470.94,13.28,0.03,131.0
2022-03-04T09:55:03,42.805,6.029,0.011,-0.025,-0.004,102.0,102.0,101.0,13.3,1505.2,328.8,-0.8,1.8,2470.928,13.28,0.027,156.3
2022-03-04T09:58:03,42.805,6.029,0.02,-0.028,-0.032,101.0,101.0,101.0,13.3,1505.2,323.8,-0.7,1.8,2470.94,13.28,0.034,144.5